Regional Weather Roundup
Issued by NWS Upton, NY

Current Version | Previous Version | Text Only | Print | Product List | Glossary On
Versions: 1 2 3 4 5 6 7 8 9 10 11 12 13 14 15 16 17 18 19 20 21 22 23 24 25 26 27 28 29 30 31 32 33 34 35 36 37 38 39 40 41 42 43 44 45 46 47 48 49 50
000
ASUS41 KOKX 290707
RWROKX

REGIONAL WEATHER ROUNDUP
NATIONAL WEATHER SERVICE NEW YORK NY
300 AM EDT SUN MAR 29 2015

NOTE: "FAIR" INDICATES FEW OR NO CLOUDS BELOW 12,000 FEET WITH NO
SIGNIFICANT WEATHER AND/OR OBSTRUCTIONS TO VISIBILITY.

NYZ071-072-176-178-NJZ106-104-290800-
NEW YORK CITY METRO AREA


CITY           SKY/WX    TMP DP  RH WIND       PRES   REMARKS
CENTRAL PARK   CLOUDY    27   9  46 VRB7      30.16R WCI  19
LAGUARDIA APRT CLOUDY    27  12  53 NW15      30.14S WCI  15
KENNEDY INTL   MOCLDY    27  13  55 NW14      30.15R WCI  16
NEWARK/LIBERTY CLOUDY    27   6  41 NW18      30.16R WCI  14
BRNX BOT. GARD   N/A    N/A N/A N/A NW8       30.14S
TETERBORO      CLOUDY    27   9  46 NW10      30.15R WCI  17
$$

NYZ177-179-078>081-290800-
LONG ISLAND NEW YORK

CITY           SKY/WX    TMP DP  RH WIND       PRES   REMARKS
FARMINGDALE    CLEAR     26  16  65 N16G22    30.12R WCI  14
ISLIP          FLURRIES  26  18  71 N17       30.08S WCI  13
SHIRLEY        FLURRIES  26  21  81 N15       30.10R WCI  14
WESTHAMPTON    LGT SNOW  27  23  85 N13       30.09R FOG     WCI  16
MONTAUK POINT    N/A     29  23  78 N14G22    30.08R WCI  18
$$

NYZ052-065-067-290800-
HUDSON VALLEY

CITY           SKY/WX    TMP DP  RH WIND       PRES   REMARKS
WHITE PLAINS   MOCLDY    24  10  55 NW14G21   30.10R WCI  12
NEWBURGH       MOCLDY    23   7  50 N7        30.14R WCI  15
MONTGOMERY     MOCLDY    23   3  42 NW8       30.13S WCI  14
POUGHKEEPSIE   CLOUDY    26   5  40 N8        30.15R WCI  18
ALBANY         CLEAR     19   5  54 CALM      30.16S
$$

NJZ001-105-106-008-010-013-015-019>022-104-290800-
NEW JERSEY

CITY           SKY/WX    TMP DP  RH WIND       PRES   REMARKS
NEWARK/LIBERTY CLOUDY    27   6  41 NW18      30.16R WCI  14
TETERBORO      CLOUDY    27   9  46 NW10      30.15R WCI  17
CALDWELL       CLOUDY    25   4  40 NW10      30.16R WCI  15
MORRISTOWN     CLOUDY    28   3  34 NW8       30.16S WCI  20
SOMERVILLE     CLOUDY    27   2  34 N12G24    30.16R WCI  17
SUSSEX         PTCLDY    23   3  42 NW9       30.15R WCI  13
ANDOVER          N/A     23   3  42 N10G18    30.15R WCI  12
TRENTON        CLOUDY    26   4  38 N12       30.16R WCI  16
MILLVILLE      MOCLDY    26   7  44 NW9       30.20R WCI  17
ATLANTIC CITY  MOCLDY    26   7  44 NW14      30.17S WCI  14
WRIGHTSTOWN    CLOUDY    25   6  43 NW10      30.15R WCI  15
TOMS RIVER     CLOUDY    27  10  50 NW9       30.16R WCI  17
BELMAR         CLOUDY    27   9  46 NW12      30.14S WCI  16
$$

PAZ047>061-062-071-290800-
EASTERN PENNSYLVANIA

CITY           SKY/WX    TMP DP  RH WIND       PRES   REMARKS
PHILADELPHIA   MOCLDY    27   4  37 NW14      30.21S WCI  16
ALLENTOWN      PTCLDY    24   6  46 NW12      30.19R WCI  13
SCRANTON       CLOUDY    20   5  52 VRB5      30.17R WCI  13
$$

CTZ002-004>006-009-010-012-RIZ004-006-007-MAZ004-011-015-290800-
SOUTHERN NEW ENGLAND
 IN CT

CITY           SKY/WX    TMP DP  RH WIND       PRES   REMARKS
BRADLEY INTL   MOCLDY    27   9  46 N8        30.10R WCI  19
HARTFORD       CLOUDY    27  10  49 N10       30.11R WCI  17
DANBURY        CLOUDY    24   5  44 NW9       30.12R WCI  14
WTRBRY/OXFORD  CLOUDY    25   9  50 N14G22    30.08R WCI  13
BRIDGEPORT     CLOUDY    27  16  63 N12       30.11S WCI  17
MERIDEN        CLOUDY    27  16  63 N10       30.10S WCI  17
NEW HAVEN      CLOUDY    28  18  66 NW12G20   30.09R WCI  18
CHESTER        CLOUDY    28  18  64 N13G21    30.06R WCI  18
GROTON         CLOUDY    27  18  69 N13       30.07R WCI  16
WILLIMANTIC    MOCLDY    25   9  50 N7        30.09R WCI  17

 IN RI

CITY           SKY/WX    TMP DP  RH WIND       PRES   REMARKS
PROVIDENCE     CLOUDY    27  17  66 N13       30.08R WCI  16
BLOCK ISLAND   CLOUDY    28  25  86 N10G20    30.04R WCI  19
WESTERLY       CLOUDY    26  19  74 N14G21    30.07R WCI  14

 IN MA

CITY           SKY/WX    TMP DP  RH WIND       PRES   REMARKS
BOSTON         CLOUDY    27   8  44 NW15      30.08R WCI  15
WORCESTER      CLOUDY    21   5  50 NW7       30.02R WCI  12
WESTFIELD      CLOUDY    25   8  48 NW6       30.09S WCI  18
PROVINCETOWN   MOCLDY    32  19  59 N17G23    30.04S WCI  21
NANTUCKET      FLURRIES  34  29  82 N14       30.02R WCI  25
$$

ANZ330-335-338-340-345-350-353-355-290800-
COASTAL MARINE OBSERVATIONS


STATION/POSITION TIME  SKY/WX   TEMP    WIND        PRES    VSBY  WAVE
                                AIR SEA DIR/SP/G                  HT/PER
                 (UTC)          (F)     (DEG/KT/KT) (MB)    (MI)  (FT/S)
NY HARB ENTRANCE 0550            29 38  320/ 19/ 23 1019.6          4/11
4S FIRE IS       0603               37                N/A           4/11
20S FIRE ISLAND  0550               38              1019.4          5/ 5
23SW MTP         0650                                 N/A           6/10
HUDSON CANYON    NOT AVBL
EXECUTION ROCKS  NOT AVBL
WESTERN LI SOUND NOT AVBL
CENTRAL LI SOUND NOT AVBL
EASTERN LI SOUND NOT AVBL
ROBBINS REEF     NOT AVBL
$$


>>>>>>>>>>>>>>>>>>>>>>>>>>>> KEY <<<<<<<<<<<<<<<<<<<<<<<<<<<
>                                                          <
>     SKY/WX - SKY CONDITION/PRESENT WEATHER               <
>     TMP    - TEMPERATURE IN FAHRENHEIT                   <
>     DP     - DEWPOINT IN FAHRENHEIT                      <
>     RH     - RELATIVE HUMIDITY IN PERCENT                <
>     WIND   - DIRECTION AND SPEED IN MPH                  <
>     PRES   - MEAN SEA LEVEL PRESSURE IN INCHES OF HG     <
>     WCI    - WIND CHILL INDEX                            <
>     VSB    - VISIBILITY IN MILES                         <
>     HX     - HEAT INDEX                                  <
>     TC     - TEMPERATURE IN CELSIUS                      <
>     VRB    - VARIABLE WIND DIRECTION                     <
>                                                          <
>>>>>>>>>>>>>>>>>>>>>>>>>>>> KEY <<<<<<<<<<<<<<<<<<<<<<<<<<<





USA.gov is the U.S. government's official web portal to all federal, state and local government web resources and services.